Retour au catalogue

CZ-6A DEB

ActifSSO
NORAD 54561·DEBRIS·🇨🇳 China

Lancé Nov 11, 2022 depuis Taiyuan Satellite Launch Center

Loading…

Prochains Passages (prochaines 24 heures)

TLE

FraisSource: Space-Track

Époque: Sep 14, 2026, 01:14 UTC

1 54561U 22151LM  26257.05182616  .00000837  00000-0  29927-3 0  9993
2 54561  98.7686 301.6376 0132010 212.9572 146.3331 14.32076837199919

Suivez CZ-6A DEB en temps réel avec AllMySat

Download on the App Store